Previsão horária em Sent-Eli

Hoje, 1 Dezembro, Terça-feira

Tempo Temperatura Precipitação Vento Pressão Humidade
00:00 +26°C° 0 mm 3 m/s 754 mmHg 95%
01:00 +26°C° 0 mm 3 m/s 753 mmHg 95%
02:00 +26°C° 0 mm 3 m/s 753 mmHg 95%
03:00 +26°C° 0 mm 2 m/s 753 mmHg 95%
04:00 +25°C° 0 mm 2 m/s 753 mmHg 95%
05:00 +25°C° 0 mm 2 m/s 753 mmHg 95%
06:00 +27°C° 0.1 mm 2 m/s 754 mmHg 90%
07:00 +28°C° 0.1 mm 2 m/s 754 mmHg 85%
08:00 +29°C° 0.1 mm 3 m/s 755 mmHg 80%
09:00 +30°C° 0.1 mm 3 m/s 755 mmHg 73%
10:00 +31°C° 0.1 mm 3 m/s 755 mmHg 67%
11:00 +33°C° 0.1 mm 3 m/s 755 mmHg 61%
12:00 +33°C° 0.4 mm 3 m/s 754 mmHg 64%
13:00 +32°C° 0.4 mm 4 m/s 753 mmHg 67%
14:00 +32°C° 0.4 mm 4 m/s 752 mmHg 70%
15:00 +30°C° 0.4 mm 4 m/s 752 mmHg 75%
16:00 +29°C° 0.4 mm 4 m/s 753 mmHg 80%
17:00 +28°C° 0.4 mm 4 m/s 753 mmHg 84%
18:00 +27°C° 0.5 mm 4 m/s 753 mmHg 87%
19:00 +27°C° 0.5 mm 4 m/s 754 mmHg 91%
20:00 +26°C° 0.5 mm 4 m/s 754 mmHg 94%
21:00 +26°C° 0.5 mm 4 m/s 754 mmHg 94%
22:00 +26°C° 0.5 mm 4 m/s 754 mmHg 95%
23:00 +26°C° 0.5 mm 4 m/s 754 mmHg 95%

Amanhã, 2 Dezembro, Quarta-feira

Tempo Temperatura Precipitação Vento Pressão Humidade
00:00 +26°C° 0.7 mm 4 m/s 753 mmHg 95%
01:00 +26°C° 0.7 mm 4 m/s 753 mmHg 95%
02:00 +25°C° 0.7 mm 4 m/s 752 mmHg 95%
03:00 +25°C° 0.4 mm 4 m/s 753 mmHg 95%
04:00 +25°C° 0.4 mm 4 m/s 753 mmHg 95%
05:00 +25°C° 0.4 mm 4 m/s 753 mmHg 95%
06:00 +27°C° 0.1 mm 4 m/s 754 mmHg 90%
07:00 +28°C° 0.1 mm 4 m/s 754 mmHg 86%
08:00 +29°C° 0.1 mm 4 m/s 755 mmHg 81%
09:00 +30°C° 0.1 mm 4 m/s 755 mmHg 75%
10:00 +32°C° 0.1 mm 4 m/s 755 mmHg 69%
11:00 +33°C° 0.1 mm 4 m/s 755 mmHg 63%
12:00 +33°C° 0.1 mm 4 m/s 754 mmHg 64%
13:00 +32°C° 0.1 mm 4 m/s 753 mmHg 66%
14:00 +32°C° 0.1 mm 4 m/s 753 mmHg 68%
15:00 +30°C° 0 mm 4 m/s 753 mmHg 73%
16:00 +29°C° 0 mm 4 m/s 753 mmHg 77%
17:00 +28°C° 0 mm 4 m/s 753 mmHg 82%
18:00 +28°C° 0 mm 4 m/s 753 mmHg 85%
19:00 +27°C° 0 mm 4 m/s 754 mmHg 88%
20:00 +27°C° 0 mm 4 m/s 755 mmHg 91%
21:00 +27°C° 0 mm 4 m/s 754 mmHg 92%
22:00 +27°C° 0 mm 4 m/s 754 mmHg 92%
23:00 +26°C° 0 mm 4 m/s 754 mmHg 93%

Depois de amanhã, 3 Dezembro, Quinta-feira

Tempo Temperatura Precipitação Vento Pressão Humidade
00:00 +26°C° 0 mm 4 m/s 754 mmHg 93%
01:00 +26°C° 0 mm 4 m/s 753 mmHg 93%
02:00 +26°C° 0 mm 4 m/s 753 mmHg 93%
03:00 +26°C° 0.1 mm 4 m/s 753 mmHg 93%
04:00 +26°C° 0.1 mm 4 m/s 753 mmHg 94%
05:00 +26°C° 0.1 mm 5 m/s 753 mmHg 94%
06:00 +27°C° 0.1 mm 5 m/s 754 mmHg 88%
07:00 +28°C° 0.1 mm 5 m/s 754 mmHg 83%
08:00 +30°C° 0.1 mm 5 m/s 755 mmHg 77%
09:00 +30°C° 0.2 mm 5 m/s 755 mmHg 74%
10:00 +32°C° 0.2 mm 5 m/s 755 mmHg 70%
11:00 +32°C° 0.2 mm 5 m/s 754 mmHg 67%
12:00 +32°C° 0.1 mm 5 m/s 754 mmHg 65%
13:00 +32°C° 0.1 mm 5 m/s 753 mmHg 63%
14:00 +32°C° 0.1 mm 5 m/s 753 mmHg 61%
15:00 +30°C° 0 mm 5 m/s 753 mmHg 67%
16:00 +29°C° 0 mm 4 m/s 753 mmHg 73%
17:00 +28°C° 0 mm 4 m/s 753 mmHg 79%
18:00 +27°C° 0 mm 4 m/s 754 mmHg 83%
19:00 +27°C° 0 mm 4 m/s 754 mmHg 86%
20:00 +26°C° 0 mm 4 m/s 755 mmHg 89%
21:00 +26°C° 0.2 mm 4 m/s 755 mmHg 90%
22:00 +26°C° 0.2 mm 4 m/s 755 mmHg 91%
23:00 +26°C° 0.2 mm 4 m/s 755 mmHg 91%

4 Dezembro, Sexta-feira

Tempo Temperatura Precipitação Vento Pressão Humidade
00:00 +26°C° 0 mm 4 m/s 754 mmHg 92%
01:00 +26°C° 0 mm 4 m/s 754 mmHg 92%
02:00 +26°C° 0 mm 4 m/s 754 mmHg 92%
03:00 +26°C° 0 mm 4 m/s 754 mmHg 92%
04:00 +26°C° 0 mm 4 m/s 754 mmHg 92%
05:00 +26°C° 0 mm 4 m/s 754 mmHg 93%
06:00 +27°C° 0.2 mm 4 m/s 755 mmHg 90%
07:00 +28°C° 0.2 mm 4 m/s 755 mmHg 87%
08:00 +29°C° 0.2 mm 4 m/s 756 mmHg 84%
09:00 +29°C° 0.4 mm 4 m/s 755 mmHg 84%
10:00 +29°C° 0.4 mm 4 m/s 755 mmHg 85%
11:00 +29°C° 0.4 mm 5 m/s 755 mmHg 85%
12:00 +29°C° 0.6 mm 4 m/s 755 mmHg 86%
13:00 +29°C° 0.6 mm 4 m/s 754 mmHg 86%
14:00 +29°C° 0.6 mm 4 m/s 753 mmHg 87%
15:00 +28°C° 0.6 mm 4 m/s 754 mmHg 89%
16:00 +27°C° 0.6 mm 4 m/s 754 mmHg 90%
17:00 +27°C° 0.6 mm 4 m/s 754 mmHg 92%
18:00 +27°C° 0.1 mm 4 m/s 754 mmHg 93%
19:00 +26°C° 0.1 mm 4 m/s 755 mmHg 94%
20:00 +26°C° 0.1 mm 4 m/s 755 mmHg 95%
21:00 +26°C° 0.2 mm 4 m/s 755 mmHg 95%
22:00 +26°C° 0.2 mm 4 m/s 755 mmHg 95%
23:00 +26°C° 0.2 mm 4 m/s 755 mmHg 95%

5 Dezembro, Sábado

Tempo Temperatura Precipitação Vento Pressão Humidade
00:00 +26°C° 0.5 mm 4 m/s 754 mmHg 95%
01:00 +26°C° 0.5 mm 4 m/s 754 mmHg 95%
02:00 +25°C° 0.5 mm 4 m/s 753 mmHg 95%
03:00 +26°C° 0.2 mm 4 m/s 753 mmHg 95%
04:00 +26°C° 0.2 mm 4 m/s 754 mmHg 94%
05:00 +26°C° 0.2 mm 4 m/s 754 mmHg 94%
06:00 +26°C° 0.6 mm 4 m/s 754 mmHg 93%
07:00 +27°C° 0.6 mm 4 m/s 755 mmHg 91%
08:00 +28°C° 0.6 mm 4 m/s 756 mmHg 89%
09:00 +28°C° 0.9 mm 4 m/s 756 mmHg 89%
10:00 +28°C° 0.9 mm 4 m/s 756 mmHg 88%
11:00 +29°C° 0.9 mm 4 m/s 756 mmHg 88%
12:00 +29°C° 0.6 mm 4 m/s 755 mmHg 88%
13:00 +29°C° 0.6 mm 4 m/s 755 mmHg 87%
14:00 +29°C° 0.6 mm 5 m/s 754 mmHg 87%
15:00 +28°C° 0.1 mm 4 m/s 754 mmHg 88%
16:00 +28°C° 0.1 mm 4 m/s 754 mmHg 89%
17:00 +27°C° 0.1 mm 4 m/s 754 mmHg 89%
18:00 +27°C° 0.3 mm 4 m/s 754 mmHg 91%
19:00 +26°C° 0.3 mm 4 m/s 755 mmHg 93%
20:00 +26°C° 0.3 mm 4 m/s 755 mmHg 95%
21:00 +26°C° 0.3 mm 4 m/s 755 mmHg 95%
22:00 +26°C° 0.3 mm 4 m/s 755 mmHg 95%
23:00 +26°C° 0.3 mm 4 m/s 755 mmHg 95%

6 Dezembro, Domingo

Tempo Temperatura Precipitação Vento Pressão Humidade
00:00 +26°C° 1 mm 4 m/s 754 mmHg 95%
01:00 +26°C° 1 mm 4 m/s 754 mmHg 95%
02:00 +25°C° 1 mm 4 m/s 753 mmHg 94%
03:00 +25°C° 1.1 mm 4 m/s 753 mmHg 94%
04:00 +25°C° 1.1 mm 4 m/s 753 mmHg 94%
05:00 +25°C° 1.1 mm 4 m/s 753 mmHg 94%
06:00 +26°C° 1.4 mm 4 m/s 754 mmHg 92%
07:00 +27°C° 1.4 mm 4 m/s 755 mmHg 90%
08:00 +28°C° 1.4 mm 4 m/s 755 mmHg 88%
09:00 +28°C° 1.8 mm 5 m/s 755 mmHg 88%
10:00 +29°C° 1.8 mm 5 m/s 755 mmHg 88%
11:00 +29°C° 1.8 mm 5 m/s 755 mmHg 88%
12:00 +29°C° 1.6 mm 5 m/s 754 mmHg 88%
13:00 +29°C° 1.6 mm 5 m/s 754 mmHg 88%
14:00 +28°C° 1.6 mm 5 m/s 753 mmHg 89%
15:00 +28°C° 0.7 mm 5 m/s 753 mmHg 90%
16:00 +27°C° 0.7 mm 4 m/s 753 mmHg 92%
17:00 +27°C° 0.7 mm 4 m/s 753 mmHg 94%
18:00 +27°C° 0.3 mm 4 m/s 754 mmHg 94%
19:00 +26°C° 0.3 mm 4 m/s 754 mmHg 94%
20:00 +26°C° 0.3 mm 4 m/s 755 mmHg 95%
21:00 +26°C° 0.4 mm 4 m/s 755 mmHg 95%
22:00 +26°C° 0.4 mm 4 m/s 755 mmHg 95%
23:00 +26°C° 0.4 mm 4 m/s 755 mmHg 94%
Mostrar mais

Necessitamos do seu Consentimento

A Meteoprog e os seus Fornecedores de Serviços podem armazenar e aceder a dados pessoais como cookies, identificadores do dispositivo ou outras tecnologias semelhantes existentes no seu dispositivo e processar estes dados para personalizar conteúdos e anúncios, assim como funcionalidades nas redes sociais e análise de tráfego.

  • Armazenar e/ou aceder a informações no seu dispositivo

    Os cookies, identificadores do dispositivo ou outras informações podem ser armazenados ou acedidos no seu dispositivo, para os fins acima indicados.

  • Anúncios e conteúdos personalizados, medição de anúncios e conteúdos, dados sobre o público-alvo e desenvolvimento de produtos

    Os anúncios e os conteúdos podem ser personalizados com base num perfil. Podem ser adicionados dados adicionais para uma maior personalização dos anúncios e dos conteúdos. A eficácia dos anúncios e dos conteúdos pode ser medida. Podem ser obtidas informações sobre o público que visualizou os anúncios e os conteúdos. Estes dados podem ser usados para desenvolver ou melhorar sistemas, softwares ou a experiência do utilizador.

Ao clicar em "Eu concordo”, permitirá o uso de cookies, identificadores do dispositivo e web beacons mencionados ou outras tecnologias semelhantes. As configurações do navegador do seu dispositivo podem ser alteradas.

Para certos fins, podem ser invocados interesses legítimos ao invés de consentimento. Pode ler mais informação sobre este assunto na nossa Política de Privacidade e Cookies.